Location: Dötzum
(52.0808°N, 9.8063°E)
Time: 04:15:06
(UTC+00:00)

USA 229 DEB - Pass Details

Date: 27 May 2022
Orbit: 934 x 1278 km, 63.4° (Epoch: 24 May)

Event Time Altitude Azimuth Distance (km) Brightness Sun altitude
Rises 00:15:42 0° 313° (NW) 3,965 7.1 -15.6°
Reaches altitude 10° 00:18:27 10° 308° (NW) 3,051 6.4 -15.5°
Maximum altitude 00:25:16 43° 240° (WSW) 1,632 4.3 -15.2°
Enters shadow 00:30:40 18° 178° (S) 2,654 5.2 -15.0°
